Flag Weather past 2 weeks in Fagernes, Norway

Now
23 °F

Cold.


Feels Like: 23 °F
Forecast: 1 / 22 °F
Wind: 2 mph from North

Location: Fagernes Leirin

Current Time: Nov 27, 2014 at 6:50:25 PM

Latest Report: Nov 27, 2014 at 5:20 PM


Visibility: N/A

Pressure: 30.09 "Hg

Humidity: 93%

Dew point: 21 °F

Location of FagernesLocation

Historic Weather in Fagernes — Graph

°F

Fagernes temperature yesterday

Maximum temperature yesterday: 21 °F (at 2:20 PM)
Minimum temperature yesterday: 9 °F (at 7:50 AM)
Average temperature yesterday: 15 °F

Past Weeks' High & Low Weather Summary

 TemperatureHumidityPressure
High37 °F (Nov 25, 11:50 AM)100% (Nov 13, 12:50 PM)30.39 "Hg (Nov 13, 12:50 PM)
Low9 °F (Nov 26, 7:50 AM)70% (Nov 25, 11:50 AM)29.62 "Hg (Nov 24, 7:20 AM)
Average27 °F91%30.15 "Hg
* Reported Nov 12 5:20 PM — Nov 27 5:20 PM, Fagernes, Weather by CustomWeather, © 2014

Note: Actual official high and low records may vary slightly from our data, if they occured in-between our weather recording intervals... More about our weather records

Advertising

Fagernes weather history for previous 24 hours

 ConditionsComfort  
Time TempWeatherWind HumidityBarometerVisibility
5:20 PM
Nov 27
23 °FCold.2 mph93%30.09 "HgN/A
4:50 PM23 °FCold.3 mph93%30.09 "HgN/A
4:20 PM23 °FPartly cloudy.2 mph93%30.09 "HgN/A
3:50 PM23 °FCold.2 mph93%30.09 "HgN/A
3:20 PM23 °FBroken clouds.2 mph93%30.09 "HgN/A
2:50 PM25 °FCold.3 mph93%30.09 "HgN/A
2:20 PM25 °FIce fog.2 mph93%30.09 "Hg3 mi
1:50 PM25 °FSnow. Cloudy.No wind93%30.09 "HgN/A
1:20 PM25 °FSnow. Cloudy.1 mph93%30.09 "HgN/A
12:50 PM25 °FCold.No wind93%30.09 "Hg4 mi
12:20 PM25 °FIce fog.1 mph93%30.09 "Hg2 mi
11:50 AM23 °FSnow. Cloudy.No wind93%30.09 "HgN/A
11:20 AM23 °FBroken clouds.No wind93%30.09 "HgN/A
10:50 AM23 °FBroken clouds.No wind93%30.09 "HgN/A
10:20 AM21 °FCold.No wind93%30.09 "HgN/A
9:50 AM23 °FSnow. Fog.No wind93%30.09 "HgN/A
9:20 AM23 °FScattered clouds.1 mph93%30.09 "HgN/A
8:50 AM23 °FPassing clouds.1 mph93%30.09 "HgN/A
8:20 AM21 °FPassing clouds.No wind93%30.09 "HgN/A
7:50 AM21 °FCold.No wind93%30.09 "HgN/A
7:20 AM21 °FCold.No wind93%30.07 "HgN/A
Weather by CustomWeather, © 2014

See weather overviewHow to use our weather pages